SIRIUS FM-5

导读 | 豆包AI

SIRIUS FM-5是美国发射的通信卫星,于2009年6月30日在拜科努尔航天发射场搭载质子-M火箭成功升空。它属于天狼星卫星广播公司,主要为北美地区提供高清数字音频广播服务,设计寿命超过15年,进一步增强了天狼星公司的卫星广播覆盖能力与信号稳定性,推动了车载卫星广播业务普及,是美国卫星音频广播发展中的重要一颗卫星。

Basic Information
目录编号:
35493
目录名称:
SIRIUS FM-5
国际标识:
2009-034A
轨道中心:
EARTH
卫星名称:
SIRIUS FM-5
卫星全名:
--
卫星状态:
在轨 (已飞行6101 天)
发射日期:
2009-06-30 UTC
国别 :
美国 (US)
星等 :
--
Orbit Information
数据来源 国际轨道数据 AOE轨道数据
星历时间 2026-03-13T21:16:26+0800
12小时前
查看轨道信息
2026-03-11T18:00:00+0800
2天前
查看轨道信息
半长轴 42164.7km 42165.065km
偏心率 0.0000366 0.0000871
轨道倾角 0.036° 0.041°
近地点辐角 290.535° 313.433°
升交点赤经 265.984° 269.685°
平近点角 87.602° 9.782°
近地点 35785.019km 35783.255km
远地点 35788.107km 35790.601km
周期 1436.095分钟 1436.114分钟
每日圈数 1.002719 1.002706
Detailed Information
使用方式:
暂无
2D Orbit Map
3D Orbit Map
Orbit Altitude Analysis Chart
Orbit Inclination Analysis Chart
Orbit Comprehensive Analysis Chart
View Comprehensive Chart